Weather Service Report


274 
ASUS42 KTBW 281017
RWRFL 
FLORIDA REGIONAL WEATHER ROUNDUP
NATIONAL WEATHER SERVICE TAMPA BAY RUSKIN FL
600 AM EDT THU MAY 28 2015

NOTE: "FAIR" INDICATES FEW OR NO CLOUDS BELOW 12,000 FEET WITH NO
SIGNIFICANT WEATHER AND/OR OBSTRUCTIONS TO VISIBILITY.


FLZ001>010-012>015-112-114-115-281100-
PANHANDLE FLORIDA
  
CITY           SKY/WX    TMP DP  RH WIND       PRES   REMARKS
PENSACOLA      CLOUDY    74  73  97 E5        30.10R                  
PENSACOLA NAS  CLOUDY    78  73  84 SE8       30.09R                  
MILTON NAS     MOCLDY    69  68  96 CALM      30.11                   
CRESTVIEW      CLEAR     68  67  96 CALM      30.12R                  
DUKE FIELD     FAIR      69  67  95 E2        30.10R                  
VALPARAISO     MOCLDY    72  69  90 E3        30.10R                  
MARY ESTHER    PTCLDY    69  66  89 N1        30.09R                  
TRI COUNTY     FAIR      69  67  93 CALM      30.12R                  
PANAMA CITY    FAIR      70  68  93 NE3       30.10R                  
TYNDALL AFB    PTCLDY    72  70  94 NE6       30.10                   
APALACHICOLA   PTCLDY    73  69  87 NE3       30.10R                  

STATION/POSITION SKY/WX   TEMP    WIND        PRES    WAVE   SWELL
                          AIR SEA DIR/SP/G            HT/PER HT/PER
                          (F)     (DEG/KT/KT) (MB)    (FT/S) (FT/S)
30.1N   87.6W              79 80  150/  6/  8 1018.1R   3/ 6   2/ 6
29.2N   88.2W              78 79  150/  6/  8 1018.6R   3/ 6   3/ 6
28.8N   86.0W              79 81   90/ 12/ 14 1018.8R   3/ 6   2/ 6
PANAMA CITY BEAC           73 81  100/  3/  6 1018.7R
CAPE SAN BLAS    NOT AVBL
TOWER C                    79     110/ 11/ 13 1018.7R
28.5N   84.5W              81 81  140/ 14/ 17 1018.1S   2/ 6   2/ 6

$$
FLZ011-016>038-118-127-128-134-139-239-281100-
NORTH FLORIDA
  
CITY           SKY/WX    TMP DP  RH WIND       PRES   REMARKS
MARIANNA       CLEAR     69  69 100 E3        30.11R                  
TALLAHASSEE    PTCLDY    71  67  87 E6        30.11S                  
PERRY          CLEAR     68  67  96 NE3       30.13S                  
CROSS CITY       N/A     68  65  90 CALM      30.12R                  
LAKE CITY      FAIR      63  63 100 CALM      30.14S FOG              
GAINESVILLE    CLOUDY    63  61  93 CALM      30.13R                  
MAYPORT NAS    PTCLDY    76  66  71 E8        30.14S                  
JACKSONVILLE   MOCLDY    64  62  93 CALM      30.14S                  
JAX NAS        PTCLDY    77  66  68 E5        30.15R                  
JAX CRAIG      MOCLDY    66  63  90 CALM      30.14S                  
JAX CECIL      CLEAR     61  61 100 CALM      30.14S FOG              
FERNANDINA BEA FAIR      79  68  69 E5        30.13S                  
ST AUGUSTINE   PTCLDY    75  66  73 E7        30.15R                  

STATION/POSITION SKY/WX   TEMP    WIND        PRES    WAVE   SWELL
                          AIR SEA DIR/SP/G            HT/PER HT/PER
                          (F)     (DEG/KT/KT) (MB)    (FT/S) (FT/S)
SHELL POINT                77     110/  9/ 14   N/A
KEATON BEACH               69      80/  8/  9 1019.9R
CEDAR KEY                  75     110/ 11/ 12 1020.2R
FERNANDINA                 74 81  130/  2/  3 1020.0R
30.7N   81.3W                 79                N/A     3/ 8
MAYPORT                    76 79  130/  4/  5 1020.6S
31.4N   80.9W              77 78  110/  6/  8 1021.4S   3/ 8   3/ 8
ST AUGUSTINE               76 78  100/ 12/ 13 1021.2R

$$
FLZ040-043>046-052-053-057-058-063-144-281100-
INTERIOR CENTRAL FLORIDA
  
CITY           SKY/WX    TMP DP  RH WIND       PRES   REMARKS
OCALA          MOCLDY    70  64  83 CALM      30.13S                  
THE VILLAGES     N/A     70  70 100 NE5       30.03R                  
LEESBURG       CLEAR     72  68  87 E5        30.13R                  
SANFORD        CLEAR     69  65  86 CALM      30.12R                  
ORLANDO EXEC   CLEAR     71  66  84 NE3       30.12R                  
ORLANDO INTL   PTCLDY    72  66  81 E5        30.12R                  
WINTER HAVEN   CLEAR     72  65  78 E8        30.12R                  
LAKELAND       CLEAR     70  66  88 E6        30.11S                  
BARTOW         FAIR      66  66 100 NE5       30.12R                  
OKEECHOBEE     MOCLDY    63  63 100 CALM      30.10S                  

$$
FLZ041-047-054-059-064-141-147-281100-
EAST CENTRAL FLORIDA
  
CITY           SKY/WX    TMP DP  RH WIND       PRES   REMARKS
DAYTONA BEACH  MOCLDY    73  63  70 E3        30.13R                  
DELAND           N/A     66  64  94 CALM      30.14R                  
JFK SPACE CTR  CLEAR     69  62  80 E3        30.10S                  
CAPE CANAVERAL CLEAR     73  64  73 E6        30.10R                  
PATRICK AFB    CLEAR     76  65  67 E12       30.10R                  
MELBOURNE      CLEAR     75  66  73 E10       30.10S                  
VERO BEACH     MOCLDY    77  64  64 E8        30.10R                  
FT PIERCE      MOCLDY    75  64  68 E6        30.09R                  
STUART         PTCLDY    73  61  64 E9        30.10S                  

STATION/POSITION SKY/WX   TEMP    WIND        PRES    WAVE   SWELL
                          AIR SEA DIR/SP/G            HT/PER HT/PER
                          (F)     (DEG/KT/KT) (MB)    (FT/S) (FT/S)
28.5N   80.2W              77 81   80/ 12/ 14 1019.6R
28.9N   78.5W              76 80   80/ 14/ 17 1020.1S
TRIDENT PIER               76 82   70/  7/  9 1019.9R
28.4N   80.5W                 82                N/A     3/ 6
27.5N   80.2W                 81                N/A     4/ 8

$$
FLZ050-056-061-142-242-148-248-149-249-151-251-155-255-
160-260-281100-
WEST CENTRAL FLORIDA
  
CITY           SKY/WX    TMP DP  RH WIND       PRES   REMARKS
CRYSTAL RIVER  FAIR      68  66  94 CALM      30.11S                  
INVERNESS      FAIR      66  66 100 CALM      30.12S FOG              
BROOKSVILLE    CLEAR     68  66  93 CALM      30.12R                  
CLEARWATER     CLEAR     74  67  78 E9        30.10R                  
TAMPA INTL     PTCLDY    73  67  81 VRB3      30.11R                  
TAMPA EXEC     CLEAR     70  66  88 CALM      30.11R FOG              
PLANT CITY     CLEAR     72  70  94 E5        30.12S                  
MACDILL AFB    CLEAR     73  69  89 SE6       30.09S                  
PETER O KNIGHT CLEAR     73  70  88 E5        30.10S                  
ST PETERSBURG  CLEAR     76  66  71 SE15      30.08S                  
SARASOTA       CLEAR     69  66  90 E6        30.08R                  
VENICE         FAIR      70  66  88 E9        30.09S                  

STATION/POSITION SKY/WX   TEMP    WIND        PRES    WAVE   SWELL
                          AIR SEA DIR/SP/G            HT/PER HT/PER
                          (F)     (DEG/KT/KT) (MB)    (FT/S) (FT/S)
CEDAR KEY                  75     110/ 11/ 12 1020.2R
28.5N   84.5W              81 81  140/ 14/ 17 1018.1S   2/ 6   2/ 6
27.3N   84.2W                 81                N/A     3/ 3
CLEARWATER BEACH           76 83  110/  9/ 14 1018.8F
MIDDLE TAMPA BAY           74     120/ 11/ 14 1018.9F
VENICE                     71 84   80/  7/  9 1018.5R

$$
FLZ066-069-070-075>078-162-262-165-265-281100-
SOUTHWEST FLORIDA AND KEYS
  
CITY           SKY/WX    TMP DP  RH WIND       PRES   REMARKS
PUNTA GORDA    CLEAR     65  65 100 E7        30.10S                  
FT MYERS       CLEAR     70  66  87 E8        30.07S                  
SOUTHWEST INTL PTCLDY    69  65  86 NE6       30.08R                  
NAPLES         PTCLDY    71  67  87 NE6       30.07S                  
MARCO ISLAND     N/A     70  64  83 NE7       30.07R                  
IMMOKALEE      SUNNY    N/A N/A N/A CALM      30.09S                  
MARATHON       PTCLDY    79  67  66 NE12      30.04R                  
KEY WEST NAS   PTCLDY    78  67  68 NE12      30.03R                  
KEY WEST INTL  CLEAR     79  67  66 E10G16    30.03S                  

STATION/POSITION SKY/WX   TEMP    WIND        PRES    WAVE   SWELL
                          AIR SEA DIR/SP/G            HT/PER HT/PER
                          (F)     (DEG/KT/KT) (MB)    (FT/S) (FT/S)
VENICE                     71 84   80/  7/  9 1018.5R
NAPLES                     72 83   40/  3/  5 1018.0R
26.0N   85.6W              80 82   70/ 16/ 17 1016.9F   3/ 6   2/ 8
DRY TORTUGAS               81     100/ 17/ 18 1016.4R
NW FL BAY                  78      80/ 14/ 17 1017.2
SAND KEY                   80      80/ 18/ 22 1016.7R
SOMBRERO KEY               79      70/ 17/ 18 1017.4R
LONG KEY                   79 81   70/ 17/ 18 1018.0R
MOLASSES REEF              78 82   70/ 16/ 17 1017.1R

$$
FLZ067-068-071>074-168-172>174-281100-
SOUTHEAST FLORIDA 
  
CITY           SKY/WX    TMP DP  RH WIND       PRES   REMARKS
W PALM BEACH   PTCLDY    77  62  59 E14       30.08S                  
FT LAUDER-EXEC CLEAR     77  63  61 E14       30.06R                  
FT LAUDERDALE  PTCLDY    77  61  57 E13       30.06R                  
POMPANO BEACH  CLEAR     77  63  61 E13       30.06R                  
OPA LOCKA      CLEAR     74  60  61 E7        30.07R                  
MIAMI          PTCLDY    77  61  57 NE9       30.06R                  
WEST KENDALL   CLEAR     73  63  70 NE6       30.06R                  
HOMESTEAD      CLEAR     76  63  64 NE7       30.05R                  

STATION/POSITION SKY/WX   TEMP    WIND        PRES    WAVE   SWELL
                          AIR SEA DIR/SP/G            HT/PER HT/PER
                          (F)     (DEG/KT/KT) (MB)    (FT/S) (FT/S)
PORT EVERGLADES            78      80/ 10/ 17 1017.9R
VIRGINIA KEY               78 81   80/ 14/ 17 1016.9F
LAKE WORTH                 78 82   90/ 15/ 18 1018.0R
SETTLEMENT POINT           77      80/ 13/ 17 1019.4R

$$


Return to Home page


Western Regional Climate Center, wrcc@dri.edu